Regional Weather Roundup
Issued by NWS Mobile, AL

Home | Current Version | Previous Version | Text Only | Print | Product List | Glossary On
Versions: 1 2 3 4 5 6 7 8 9 10 11 12 13 14 15 16 17 18 19 20 21 22 23 24 25 26 27 28 29 30 31 32 33 34 35 36 37 38 39 40 41 42 43 44 45 46 47 48 49 50
000
ASUS44 KMOB 020516
RWRMOB
REGIONAL WEATHER ROUNDUP
NATIONAL WEATHER SERVICE MOBILE AL
1200 AM CDT WED SEP 02 2015

ALZ061>064-020600-
COASTAL ALABAMA


CITY           SKY/WX    TMP DP  RH WIND       PRES   REMARKS
MOBILE REG APT CLEAR     73  71  93 W3        30.07S
BROOKLEY FIELD CLEAR     78  72  81 W5        30.07S
GULF SHORES    CLEAR     74  73  98 CALM      30.05F

$$

ALZ051>060-020600-
INTERIOR SOUTHWEST AND SOUTH CENTRAL ALABAMA


CITY           SKY/WX    TMP DP  RH WIND       PRES   REMARKS
ANDALUSIA/OPP  MOCLDY    79  73  82 CALM      30.06F
EVERGREEN      CLEAR     73  72  96 CALM      30.07R
FLORALA        MOCLDY    76  70  82 CALM      30.09R
GREENVILLE     FAIR      75  70  84 CALM      30.07R

$$

FLZ001>006-020600-
WESTERN FLORIDA PANHANDLE


CITY           SKY/WX    TMP DP  RH WIND       PRES   REMARKS
CRESTVIEW      PTCLDY    74  71  91 CALM      30.07S
DESTIN         PTCLDY    80  74  81 CALM      30.05S
DUKE FIELD     PTCLDY    75  70  84 CALM      30.06S
MARY ESTHER    MOCLDY    78  73  85 CALM      30.04S
MILTON         PTCLDY    79  72  79 NW5       30.05F
PENSACOLA      CLEAR     80  71  74 W5        30.05S
NAS PENSACOLA  CLEAR     76  72  87 CALM      30.05S
VALPARAISO     PTCLDY    79  72  78 CALM      30.06R

$$

...MARINE OBSERVATIONS...

STATION/POSITION TIME  SKY/WX   TEMP    WIND        PRES    VSBY
                                AIR SEA DIR/SP/G
                 (UTC)          (F)     (DEG/KT/KT) (MB)    (MI)
PASCAGOULA       0400            81     300/  3/  3 1017.8R
PETIT BOIS ISL   0400            84     260/  6/  7 1018.4R
E DAUPHIN ISLAND 0500            83     260/  4/  5 1017.8S
MIDDLE BAY LIGHT 0400                   290/  8     1016.9S
USCG MOBILE BAY  0400            81 86  270/  5/  6 1016.8R
STATE DOCKS      0400            83 85              1017.5R
MEAHER PARK      0500            82     300/  3     1017.3S
FORT MORGAN      0400            84     300/  6/  7 1017.3R
12 S ORANGE BCH  0450            85 85  280/  6/  6 1017.1S
WVE H/P(F/S)=  1/ 5

PENSACOLA BAY    0400            82 86  310/  3/  5 1018.0R
64 S DAUPHIN ISL 0450            84 86  180/  4/  6 1018.0F
WVE H/P(F/S)=  1/ 5

115 SE PENSACOLA 0450            82 86  100/  4/  6 1017.8F
WVE H/P(F/S)=  2/ 5

MID GULF/42001   0500            85 86  140/ 10/ 12 1017.1F
EAST GULF/42003  0450            84 86  130/  6/  8 1017.6F
WVE H/P(F/S)=  2/ 5


$$

...NEARBY LOCATIONS

CITY           SKY/WX    TMP DP  RH WIND       PRES   REMARKS
GULFPORT       CLOUDY    76  72  87 CALM      30.06S
BILOXI         CLOUDY    78  74  90 CALM      30.06S
PASCAGOULA     MOCLDY    71  71 100 CALM      30.06S
HATTIESBURG    PTCLDY    77  67  71 CALM      30.07S
LAUREL         MOCLDY    79  64  61 CALM      30.09R
MERIDIAN       MOCLDY    74  71  91 CALM      30.06S
MERIDIAN NAS   PTCLDY    75  71  87 CALM      30.06S
MONTGOMERY     PTCLDY    76  70  82 E5        30.07S
MAXWELL AFB    PTCLDY    78  73  86 CALM      30.06S
TROY           PTCLDY    72  71  97 CALM      30.09R
FORT RUCKER    CLEAR     75  69  81 CALM      30.06S
DALEVILLE      MOCLDY    77  71  81 SE5       30.07S
DOTHAN         CLEAR     76  72  87 SE3       30.11S

$$

...OTHER SURROUNDING LOCATIONS...

CITY           SKY/WX    TMP DP  RH WIND       PRES   REMARKS
BIRMINGHAM     PTCLDY    74  71  91 CALM      30.10F
TUSCALOOSA     CLEAR     74  71  91 CALM      30.07S
COLUMBUS GA    CLEAR     76  71  85 E3        30.09R
PANAMA CITY    NOT AVBL
TALLAHASSEE    PTCLDY    78  75  90 E6        30.05F
BATON ROUGE    CLOUDY    78  73  84 CALM      30.07R
NEW ORLEANS    CLOUDY    80  72  76 S5        30.07R
SLIDELL        CLOUDY    75  74  96 CALM      30.06S
JACKSON        MOCLDY    73  71  93 S3        30.06R
MCCOMB         MOCLDY    75  68  78 CALM      30.08R

$$

...SURROUNDING MARINE OBSERVATIONS...

STATION/POSITION TIME  SKY/WX   TEMP    WIND        PRES    VSBY
                                AIR SEA DIR/SP/G
                 (UTC)          (F)     (DEG/KT/KT) (MB)    (MI)
WAVELAND         0400            80 86  270/  3/  3 1018.2R
PASCAGOULA RGN A 0400            80     290/  4/  5 1017.5R
PASCAGOULA PORT  0400               87                N/A
GRAND ISLE       0400            85 87  160/  4/  6 1018.2R
SOUTHWEST PASS   0500                                 N/A
PILOT STATION E  0400            84 86  140/  6/  9 1018.3R
SHELL BEACH      0400            81 87  180/  3/  3 1017.5R
PANAMA CITY      0400            80 87   30/  3/  4 1017.4F
APALACHICOLA     0400            78 86  350/  3/  6 1017.7R
TYNDALL TOWER C  0500            81     180/  3/  4 1017.4F
S APLCHCLA/42036 0450            82 85  240/  2/  4 1017.6S
WVE H/P(F/S)=  2/ 5


$$




USA.gov is the U.S. government's official web portal to all federal, state and local government web resources and services.